Location: *
(49.5667°N, 1.3667°W)
Time: 07:51:54
(UTC+00:00)

Cosmos 2082 - Pass Details

Date: 20 September 2019
Orbit: 834 x 855 km, 71.0° (Epoch: 19 October)

Event Time Altitude Azimuth Distance (km) Brightness Sun altitude
Rises 19:58:58 0° 187° (S) 3,411 6.7 -18.2°
Reaches altitude 10° 20:01:29 10° 182° (S) 2,480 5.9 -18.5°
Maximum altitude 20:06:55 48° 110° (ESE) 1,114 3.9 -19.3°
Drops below altitude 10° 20:12:23 10° 38° (NE) 2,494 6.0 -20.1°
Sets 20:14:55 0° 33° (NNE) 3,432 6.8 -20.5°
